| time (UTC) | temp F | wind direction | speed MPH | gust MPH | rain 1hr in | rain 24hr in | rain mn in | humidity % | barometer mb |
| 20260508073507 | 0 | 0.0 | 0.0 | 0.00 | 0.00 | 0.00 | 1017.2 | ||
| 20260508073005 | 0 | 0.0 | 0.0 | 0.00 | 0.00 | 0.00 | 1017.1 | ||
| 20260508072546 | 0 | 0.0 | 0.0 | 0.00 | 0.00 | 0.00 | 1017.1 | ||
| 20260508072045 | 0 | 0.0 | 0.0 | 0.00 | 0.00 | 0.00 | 1017.2 | ||
| 20260508071547 | 0 | 0.0 | 0.0 | 0.00 | 0.00 | 0.00 | 1017.2 | ||
| 20260508071042 | 0 | 0.0 | 0.0 | 0.00 | 0.00 | 0.00 | 1017.3 | ||
| 20260508070541 | 0 | 0.0 | 0.0 | 0.00 | 0.00 | 0.00 | 1017.3 | ||
| 20260508070040 | 0 | 0.0 | 0.0 | 0.00 | 0.00 | 0.00 | 1017.3 | ||
| 20260508065521 | 0 | 0.0 | 0.0 | 0.00 | 0.00 | 0.00 | 1017.3 | ||
| 20260508065019 | 0 | 0.0 | 0.0 | 0.00 | 0.00 | 0.00 | 1017.2 | ||
| 20260508064527 | 0 | 0.0 | 0.0 | 0.00 | 0.00 | 0.00 | 1017.3 | ||
| 20260508064017 | 0 | 0.0 | 0.0 | 0.00 | 0.00 | 0.00 | 1017.3 | ||
| 20260508063518 | 45 | 58 | 0.0 | 0.0 | 0.00 | 0.00 | 0.00 | 1 | 1017.3 |
| 20260508063015 | 45 | 58 | 0.0 | 0.0 | 0.00 | 0.00 | 0.00 | 1 | 1017.2 |
| 20260508062554 | 46 | 58 | 0.0 | 0.0 | 0.00 | 0.00 | 0.00 | 1 | 1017.1 |
| 20260508062054 | 46 | 58 | 0.0 | 0.0 | 0.00 | 0.00 | 0.00 | 1 | 1017.2 |
| 20260508061553 | 46 | 58 | 0.0 | 0.0 | 0.00 | 0.00 | 0.00 | 1 | 1017.1 |
| 20260508061050 | 47 | 58 | 0.0 | 0.0 | 0.00 | 0.00 | 0.00 | 1 | 1017.1 |
| 20260508060548 | 47 | 58 | 0.0 | 0.0 | 0.00 | 0.00 | 0.00 | 1 | 1017.1 |
| 20260508060047 | 47 | 58 | 0.0 | 0.0 | 0.00 | 0.00 | 0.00 | 1 | 1017.1 |
| 20260508055528 | 47 | 58 | 0.0 | 0.0 | 0.00 | 0.00 | 0.00 | 1 | 1017.2 |
| 20260508055027 | 47 | 58 | 0.0 | 0.0 | 0.00 | 0.00 | 0.00 | 1 | 1017.2 |
| 20260508054525 | 47 | 58 | 0.0 | 0.0 | 0.00 | 0.00 | 0.00 | 1 | 1017.1 |
| 20260508054023 | 47 | 58 | 0.0 | 0.0 | 0.00 | 0.00 | 0.00 | 1 | 1017.3 |
| 20260508053523 | 47 | 58 | 0.0 | 0.0 | 0.00 | 0.00 | 0.00 | 1 | 1017.3 |
| 20260508053031 | 47 | 58 | 0.0 | 0.0 | 0.00 | 0.00 | 0.00 | 1 | 1017.4 |
| 20260508052503 | 47 | 58 | 0.0 | 0.0 | 0.00 | 0.00 | 0.00 | 1 | 1017.4 |
| 20260508052004 | 47 | 58 | 0.0 | 0.0 | 0.00 | 0.00 | 0.00 | 1 | 1017.4 |
| 20260508051620 | 48 | 58 | 0.0 | 0.0 | 0.00 | 0.00 | 0.00 | 1 | 1017.4 |
| 20260508051059 | 48 | 58 | 0.0 | 0.0 | 0.00 | 0.00 | 0.00 | 1 | 1017.5 |
| 20260508050557 | 48 | 58 | 0.0 | 0.0 | 0.00 | 0.00 | 0.00 | 1 | 1017.6 |
| 20260508050056 | 48 | 58 | 0.0 | 0.0 | 0.00 | 0.00 | 0.00 | 1 | 1017.6 |
| 20260508045536 | 48 | 58 | 0.0 | 0.0 | 0.00 | 0.00 | 0.00 | 1 | 1017.6 |
| 20260508045038 | 48 | 58 | 0.0 | 0.0 | 0.00 | 0.00 | 0.00 | 1 | 1017.4 |
| 20260508044534 | 48 | 58 | 0.0 | 0.0 | 0.00 | 0.00 | 0.00 | 1 | 1017.6 |
| 20260508044032 | 48 | 58 | 0.0 | 0.0 | 0.00 | 0.00 | 0.00 | 1 | 1017.6 |
| 20260508043531 | 48 | 58 | 0.0 | 0.0 | 0.00 | 0.00 | 0.00 | 1 | 1017.5 |
| 20260508043030 | 49 | 58 | 0.0 | 0.0 | 0.00 | 0.00 | 0.00 | 1 | 1017.5 |
| 20260508042510 | 49 | 58 | 0.0 | 0.0 | 0.00 | 0.00 | 0.00 | 1 | 1017.6 |
| 20260508042013 | 49 | 58 | 0.0 | 0.0 | 0.00 | 0.00 | 0.00 | 1 | 1017.7 |
| 20260508041511 | 49 | 58 | 0.0 | 0.0 | 0.00 | 0.00 | 0.00 | 1 | 1017.7 |
| 20260508041006 | 50 | 58 | 0.0 | 0.0 | 0.00 | 0.00 | 0.00 | 1 | 1017.7 |
| 20260508040508 | 50 | 58 | 0.0 | 0.0 | 0.00 | 0.00 | 0.00 | 1 | 1017.7 |
| 20260508040004 | 51 | 58 | 0.0 | 0.0 | 0.00 | 0.00 | 0.00 | 1 | 1017.8 |
| 20260508035543 | 52 | 58 | 0.0 | 0.0 | 0.00 | 0.00 | 0.00 | 1 | 1017.7 |
| 20260508035042 | 52 | 58 | 0.0 | 0.0 | 0.00 | 0.00 | 0.00 | 1 | 1017.6 |
| 20260508034542 | 53 | 58 | 0.0 | 0.0 | 0.00 | 0.00 | 0.00 | 1 | 1017.6 |
| 20260508034040 | 53 | 58 | 0.0 | 0.0 | 0.00 | 0.00 | 0.00 | 1 | 1017.6 |
| 20260508033538 | 53 | 58 | 0.0 | 0.0 | 0.00 | 0.00 | 0.00 | 1 | 1017.6 |
| 20260508033044 | 54 | 58 | 0.0 | 0.0 | 0.00 | 0.00 | 0.00 | 1 | 1017.5 |
| 20260508032518 | 54 | 58 | 0.0 | 0.0 | 0.00 | 0.00 | 0.00 | 1 | 1017.6 |
| 20260508032017 | 54 | 58 | 0.0 | 1.0 | 0.00 | 0.00 | 0.00 | 2 | 1017.6 |
| 20260508031517 | 55 | 344 | 0.0 | 1.0 | 0.00 | 0.00 | 0.00 | 3 | 1017.6 |
| 20260508031013 | 55 | 342 | 0.0 | 0.0 | 0.00 | 0.00 | 0.00 | 4 | 1017.7 |
| 20260508030512 | 55 | 93 | 0.0 | 0.0 | 0.00 | 0.00 | 0.00 | 7 | 1017.6 |
| 20260508030016 | 55 | 90 | 0.0 | 0.0 | 0.00 | 0.00 | 0.00 | 5 | 1017.6 |
| 20260508025610 | 55 | 92 | 0.0 | 0.0 | 0.00 | 0.00 | 0.00 | 5 | 1017.6 |
| 20260508025051 | 55 | 217 | 0.0 | 0.0 | 0.00 | 0.00 | 0.00 | 12 | 1017.5 |
| 20260508024550 | 55 | 216 | 0.0 | 0.0 | 0.00 | 0.00 | 0.00 | 11 | 1017.5 |
| 20260508024049 | 55 | 217 | 0.0 | 0.0 | 0.00 | 0.00 | 0.00 | 12 | 1017.4 |
| 20260508023547 | 55 | 91 | 0.0 | 1.0 | 0.00 | 0.00 | 0.00 | 19 | 1017.4 |
| 20260508023046 | 55 | 103 | 0.0 | 1.0 | 0.00 | 0.00 | 0.00 | 24 | 1017.4 |
| 20260508022545 | 54 | 106 | 0.0 | 1.0 | 0.00 | 0.00 | 0.00 | 27 | 1017.5 |
| 20260508022028 | 54 | 198 | 0.0 | 3.0 | 0.00 | 0.00 | 0.00 | 31 | 1017.5 |
| 20260508021532 | 54 | 60 | 0.0 | 1.0 | 0.00 | 0.00 | 0.00 | 33 | 1017.5 |
| 20260508021029 | 54 | 247 | 0.0 | 1.0 | 0.00 | 0.00 | 0.00 | 36 | 1017.6 |
| 20260508020523 | 54 | 235 | 0.0 | 2.0 | 0.00 | 0.00 | 0.00 | 40 | 1017.8 |
| 20260508020022 | 54 | 143 | 0.0 | 2.0 | 0.00 | 0.00 | 0.00 | 43 | 1017.9 |
| 20260508015521 | 54 | 260 | 0.0 | 3.0 | 0.00 | 0.00 | 0.00 | 43 | 1017.9 |
| 20260508015003 | 54 | 239 | 0.0 | 2.0 | 0.00 | 0.00 | 0.00 | 44 | 1018.0 |
| 20260508014508 | 54 | 248 | 0.0 | 3.0 | 0.00 | 0.00 | 0.00 | 46 | 1018.0 |
| 20260508014002 | 54 | 27 | 0.0 | 4.0 | 0.00 | 0.00 | 0.00 | 49 | 1018.0 |
| 20260508013504 | 55 | 250 | 1.0 | 4.0 | 0.00 | 0.00 | 0.00 | 48 | 1018.0 |
| 20260508013001 | 55 | 60 | 0.0 | 2.0 | 0.00 | 0.00 | 0.00 | 50 | 1018.1 |
| 20260508012604 | 55 | 233 | 0.0 | 3.0 | 0.00 | 0.00 | 0.00 | 48 | 1018.2 |
| 20260508012042 | 54 | 238 | 0.0 | 3.0 | 0.00 | 0.00 | 0.00 | 52 | 1018.3 |
| 20260508011548 | 55 | 225 | 0.0 | 3.0 | 0.00 | 0.00 | 0.00 | 51 | 1018.4 |
| 20260508011041 | 55 | 238 | 0.0 | 2.0 | 0.00 | 0.00 | 0.00 | 49 | 1018.5 |
| 20260508010540 | 55 | 242 | 0.0 | 3.0 | 0.00 | 0.00 | 0.00 | 50 | 1018.4 |
| 20260508010056 | 55 | 229 | 0.0 | 3.0 | 0.00 | 0.00 | 0.00 | 51 | 1018.4 |
| 20260508005539 | 55 | 233 | 1.0 | 3.0 | 0.00 | 0.00 | 0.00 | 51 | 1018.5 |
| 20260508005021 | 55 | 224 | 0.0 | 4.0 | 0.00 | 0.00 | 0.00 | 52 | 1018.5 |
| 20260508004520 | 55 | 245 | 0.0 | 4.0 | 0.00 | 0.00 | 0.00 | 52 | 1018.6 |
| 20260508004020 | 55 | 56 | 1.0 | 4.0 | 0.00 | 0.00 | 0.00 | 53 | 1018.6 |
| 20260508003519 | 55 | 60 | 0.0 | 5.0 | 0.00 | 0.00 | 0.00 | 51 | 1018.7 |
| 20260508003019 | 55 | 226 | 1.0 | 4.0 | 0.00 | 0.00 | 0.00 | 53 | 1018.9 |
| 20260508002519 | 55 | 280 | 0.0 | 2.0 | 0.00 | 0.00 | 0.00 | 52 | 1018.8 |
| 20260508002103 | 55 | 274 | 0.0 | 1.0 | 0.00 | 0.00 | 0.00 | 52 | 1018.9 |
| 20260508001603 | 55 | 255 | 0.0 | 2.0 | 0.00 | 0.00 | 0.00 | 52 | 1018.8 |
| 20260508001001 | 55 | 307 | 0.0 | 4.0 | 0.00 | 0.00 | 0.00 | 54 | 1018.7 |
| 20260508000601 | 56 | 236 | 1.0 | 4.0 | 0.00 | 0.00 | 0.00 | 54 | 1018.6 |
| 20260508000059 | 56 | 241 | 0.0 | 2.0 | 0.00 | 0.00 | 0.00 | 52 | 1018.6 |
| 20260507235558 | 56 | 345 | 0.0 | 3.0 | 0.00 | 0.00 | 0.00 | 51 | 1018.7 |
| 20260507235040 | 56 | 46 | 0.0 | 4.0 | 0.00 | 0.00 | 0.00 | 52 | 1018.7 |
| 20260507234540 | 56 | 297 | 0.0 | 4.0 | 0.00 | 0.00 | 0.00 | 53 | 1018.8 |
| 20260507234040 | 56 | 241 | 1.0 | 4.0 | 0.00 | 0.00 | 0.00 | 54 | 1018.8 |
| 20260507233540 | 56 | 120 | 1.0 | 5.0 | 0.00 | 0.00 | 0.00 | 53 | 1018.8 |
| 20260507233041 | 56 | 248 | 0.0 | 2.0 | 0.00 | 0.00 | 0.00 | 54 | 1018.9 |
| 20260507232538 | 56 | 298 | 0.0 | 2.0 | 0.00 | 0.00 | 0.00 | 54 | 1018.9 |
| 20260507232021 | 56 | 48 | 0.0 | 2.0 | 0.00 | 0.00 | 0.00 | 55 | 1019.0 |
| 20260507231520 | 55 | 283 | 0.0 | 2.0 | 0.00 | 0.00 | 0.00 | 55 | 1019.1 |
| 20260507231019 | 56 | 249 | 0.0 | 2.0 | 0.00 | 0.00 | 0.00 | 55 | 1019.2 |
| 20260507230518 | 56 | 264 | 0.0 | 2.0 | 0.00 | 0.00 | 0.00 | 55 | 1019.2 |
| 20260507230027 | 56 | 314 | 0.0 | 2.0 | 0.00 | 0.00 | 0.00 | 56 | 1019.2 |
| 20260507225517 | 56 | 262 | 0.0 | 5.0 | 0.00 | 0.00 | 0.00 | 56 | 1019.3 |
| 20260507225004 | 56 | 242 | 0.0 | 5.0 | 0.00 | 0.00 | 0.00 | 56 | 1019.4 |
| 20260507224508 | 56 | 256 | 0.0 | 5.0 | 0.00 | 0.00 | 0.00 | 56 | 1019.5 |
| 20260507224002 | 56 | 222 | 2.0 | 6.0 | 0.00 | 0.00 | 0.00 | 56 | 1019.5 |
| 20260507223502 | 55 | 319 | 0.0 | 6.0 | 0.00 | 0.00 | 0.00 | 56 | 1019.6 |
| 20260507223002 | 55 | 262 | 0.0 | 6.0 | 0.00 | 0.00 | 0.00 | 56 | 1019.6 |
| 20260507222501 | 56 | 209 | 0.0 | 5.0 | 0.00 | 0.00 | 0.00 | 56 | 1019.6 |
| 20260507222100 | 56 | 218 | 2.0 | 5.0 | 0.00 | 0.00 | 0.00 | 56 | 1019.7 |
| 20260507222000 | 56 | 256 | 0.0 | 4.0 | 0.00 | 0.00 | 0.00 | 56 | 1019.7 |
| 20260507221600 | 55 | 217 | 1.0 | 6.0 | 0.00 | 0.00 | 0.00 | 56 | 1019.7 |
| 20260507221059 | 56 | 218 | 2.0 | 6.0 | 0.00 | 0.00 | 0.00 | 56 | 1019.8 |
| 20260507220557 | 56 | 251 | 1.0 | 6.0 | 0.00 | 0.00 | 0.00 | 56 | 1019.8 |
| 20260507220057 | 56 | 229 | 0.0 | 4.0 | 0.00 | 0.00 | 0.00 | 56 | 1019.8 |
| 20260507215557 | 56 | 263 | 1.0 | 5.0 | 0.00 | 0.00 | 0.00 | 56 | 1019.9 |
| 20260507215100 | 56 | 263 | 1.0 | 5.0 | 0.00 | 0.00 | 0.00 | 56 | 1019.9 |
| 20260507214559 | 57 | 243 | 1.0 | 6.0 | 0.00 | 0.00 | 0.00 | 56 | 1020.0 |
| 20260507214057 | 57 | 219 | 3.0 | 6.0 | 0.00 | 0.00 | 0.00 | 56 | 1019.9 |
| 20260507213556 | 57 | 226 | 1.0 | 5.0 | 0.00 | 0.00 | 0.00 | 56 | 1019.9 |
| 20260507213129 | 57 | 219 | 0.0 | 5.0 | 0.00 | 0.00 | 0.00 | 55 | 1019.9 |
| 20260507212558 | 57 | 244 | 0.0 | 2.0 | 0.00 | 0.00 | 0.00 | 55 | 1019.8 |
| 20260507212054 | 57 | 239 | 0.0 | 3.0 | 0.00 | 0.00 | 0.00 | 55 | 1019.9 |
| 20260507211555 | 56 | 236 | 1.0 | 6.0 | 0.00 | 0.00 | 0.00 | 55 | 1019.9 |
| 20260507211051 | 56 | 273 | 1.0 | 6.0 | 0.00 | 0.00 | 0.00 | 56 | 1019.8 |
| 20260507210554 | 56 | 252 | 0.0 | 3.0 | 0.00 | 0.00 | 0.00 | 56 | 1020.0 |
| 20260507210050 | 56 | 262 | 0.0 | 5.0 | 0.00 | 0.00 | 0.00 | 55 | 1020.0 |
| 20260507205547 | 56 | 229 | 2.0 | 6.0 | 0.00 | 0.00 | 0.00 | 55 | 1020.1 |
| 20260507205029 | 56 | 228 | 1.0 | 6.0 | 0.00 | 0.00 | 0.00 | 56 | 1020.1 |
| 20260507204533 | 56 | 226 | 1.0 | 5.0 | 0.00 | 0.00 | 0.00 | 55 | 1020.0 |
| 20260507204025 | 56 | 245 | 0.0 | 5.0 | 0.00 | 0.00 | 0.00 | 55 | 1020.0 |
| 20260507203528 | 56 | 235 | 1.0 | 5.0 | 0.00 | 0.00 | 0.00 | 56 | 1020.1 |
| 20260507203033 | 57 | 211 | 1.0 | 7.0 | 0.00 | 0.00 | 0.00 | 55 | 1020.1 |
| 20260507202520 | 57 | 200 | 3.0 | 7.0 | 0.00 | 0.00 | 0.00 | 55 | 1020.2 |
| 20260507202001 | 57 | 217 | 2.0 | 5.0 | 0.00 | 0.00 | 0.00 | 55 | 1020.2 |
| 20260507201621 | 57 | 228 | 1.0 | 5.0 | 0.00 | 0.00 | 0.00 | 55 | 1020.2 |
| 20260507201059 | 57 | 245 | 1.0 | 5.0 | 0.00 | 0.00 | 0.00 | 55 | 1020.2 |
| 20260507200557 | 56 | 238 | 2.0 | 6.0 | 0.00 | 0.00 | 0.00 | 55 | 1020.2 |
| 20260507200108 | 56 | 218 | 1.0 | 4.0 | 0.00 | 0.00 | 0.00 | 55 | 1020.2 |
| 20260507195558 | 56 | 211 | 1.0 | 3.0 | 0.00 | 0.00 | 0.00 | 55 | 1020.2 |
| 20260507195053 | 56 | 243 | 0.0 | 6.0 | 0.00 | 0.00 | 0.00 | 55 | 1020.3 |
| 20260507194535 | 57 | 228 | 0.0 | 6.0 | 0.00 | 0.00 | 0.00 | 54 | 1020.3 |
| 20260507194033 | 56 | 257 | 2.0 | 6.0 | 0.00 | 0.00 | 0.00 | 55 | 1020.4 |
| 20260507193531 | 57 | 267 | 0.0 | 6.0 | 0.00 | 0.00 | 0.00 | 54 | 1020.4 |
| 20260507193042 | 56 | 303 | 0.0 | 5.0 | 0.00 | 0.00 | 0.00 | 54 | 1020.4 |
| 20260507192530 | 56 | 221 | 2.0 | 5.0 | 0.00 | 0.00 | 0.00 | 54 | 1020.5 |
| 20260507192028 | 57 | 219 | 1.0 | 4.0 | 0.00 | 0.00 | 0.00 | 54 | 1020.4 |
| 20260507191508 | 56 | 62 | 0.0 | 6.0 | 0.00 | 0.00 | 0.00 | 55 | 1020.5 |
| 20260507191009 | 56 | 242 | 3.0 | 6.0 | 0.00 | 0.00 | 0.00 | 54 | 1020.5 |
| 20260507190507 | 57 | 243 | 0.0 | 4.0 | 0.00 | 0.00 | 0.00 | 53 | 1020.5 |
| 20260507190006 | 56 | 221 | 0.0 | 3.0 | 0.00 | 0.00 | 0.00 | 54 | 1020.5 |
| 20260507185503 | 56 | 229 | 0.0 | 4.0 | 0.00 | 0.00 | 0.00 | 54 | 1020.5 |
| 20260507185001 | 56 | 228 | 2.0 | 4.0 | 0.00 | 0.00 | 0.00 | 54 | 1020.5 |
| 20260507184543 | 56 | 313 | 0.0 | 4.0 | 0.00 | 0.00 | 0.00 | 53 | 1020.5 |
| 20260507184043 | 56 | 285 | 0.0 | 3.0 | 0.00 | 0.00 | 0.00 | 53 | 1020.5 |
| 20260507183540 | 56 | 249 | 0.0 | 4.0 | 0.00 | 0.00 | 0.00 | 54 | 1020.5 |
| 20260507183041 | 57 | 236 | 0.0 | 3.0 | 0.00 | 0.00 | 0.00 | 52 | 1020.5 |
| 20260507182537 | 57 | 68 | 0.0 | 2.0 | 0.00 | 0.00 | 0.00 | 52 | 1020.6 |
| 20260507182158 | 56 | 106 | 0.0 | 2.0 | 0.00 | 0.00 | 0.00 | 52 | 1020.5 |
| 20260507181517 | 56 | 242 | 0.0 | 2.0 | 0.00 | 0.00 | 0.00 | 53 | 1020.5 |
| 20260507181019 | 55 | 273 | 0.0 | 4.0 | 0.00 | 0.00 | 0.00 | 54 | 1020.5 |
| 20260507180516 | 56 | 250 | 1.0 | 4.0 | 0.00 | 0.00 | 0.00 | 54 | 1020.6 |
| 20260507180015 | 56 | 231 | 0.0 | 5.0 | 0.00 | 0.00 | 0.00 | 53 | 1020.6 |
| 20260507175510 | 56 | 221 | 1.0 | 5.0 | 0.00 | 0.00 | 0.00 | 52 | 1020.6 |
| 20260507175009 | 56 | 245 | 0.0 | 3.0 | 0.00 | 0.00 | 0.00 | 53 | 1020.6 |
| 20260507174557 | 56 | 229 | 1.0 | 3.0 | 0.00 | 0.00 | 0.00 | 53 | 1020.8 |
| 20260507174048 | 56 | 239 | 0.0 | 5.0 | 0.00 | 0.00 | 0.00 | 51 | 1020.7 |
| 20260507173547 | 56 | 297 | 0.0 | 5.0 | 0.00 | 0.00 | 0.00 | 51 | 1020.7 |
| 20260507173049 | 55 | 218 | 1.0 | 3.0 | 0.00 | 0.00 | 0.00 | 52 | 1020.8 |
| 20260507172548 | 56 | 231 | 0.0 | 3.0 | 0.00 | 0.00 | 0.00 | 51 | 1020.8 |
| 20260507172042 | 55 | 226 | 0.0 | 2.0 | 0.00 | 0.00 | 0.00 | 51 | 1020.8 |
| 20260507171524 | 54 | 226 | 1.0 | 2.0 | 0.00 | 0.00 | 0.00 | 53 | 1020.8 |
| 20260507171022 | 54 | 283 | 0.0 | 2.0 | 0.00 | 0.00 | 0.00 | 52 | 1020.7 |
| 20260507170522 | 55 | 57 | 0.0 | 3.0 | 0.00 | 0.00 | 0.00 | 50 | 1020.7 |
| 20260507170020 | 55 | 63 | 0.0 | 2.0 | 0.00 | 0.00 | 0.00 | 51 | 1020.7 |
| 20260507165518 | 55 | 245 | 0.0 | 2.0 | 0.00 | 0.00 | 0.00 | 49 | 1020.6 |
| 20260507165017 | 54 | 222 | 0.0 | 2.0 | 0.00 | 0.00 | 0.00 | 50 | 1020.6 |
| 20260507164603 | 54 | 84 | 0.0 | 2.0 | 0.00 | 0.00 | 0.00 | 51 | 1020.7 |
| 20260507164502 | 54 | 283 | 0.0 | 1.0 | 0.00 | 0.00 | 0.00 | 49 | 1020.7 |
| 20260507164057 | 54 | 219 | 0.0 | 1.0 | 0.00 | 0.00 | 0.00 | 49 | 1020.8 |
| 20260507163555 | 54 | 227 | 0.0 | 4.0 | 0.00 | 0.00 | 0.00 | 50 | 1020.8 |
| 20260507163053 | 54 | 236 | 0.0 | 4.0 | 0.00 | 0.00 | 0.00 | 51 | 1020.7 |
| 20260507162654 | 54 | 219 | 0.0 | 4.0 | 0.00 | 0.00 | 0.00 | 50 | 1020.7 |
| 20260507162050 | 54 | 250 | 0.0 | 2.0 | 0.00 | 0.00 | 0.00 | 49 | 1020.7 |
| 20260507161532 | 53 | 247 | 0.0 | 6.0 | 0.00 | 0.00 | 0.00 | 48 | 1020.8 |
| 20260507161030 | 53 | 322 | 2.0 | 6.0 | 0.00 | 0.00 | 0.00 | 50 | 1020.8 |
| 20260507160529 | 53 | 240 | 0.0 | 2.0 | 0.00 | 0.00 | 0.00 | 49 | 1020.8 |
| 20260507160028 | 53 | 47 | 0.0 | 1.0 | 0.00 | 0.00 | 0.00 | 49 | 1020.8 |
| 20260507155526 | 53 | 22 | 0.0 | 2.0 | 0.00 | 0.00 | 0.00 | 47 | 1020.9 |
| 20260507155026 | 53 | 224 | 0.0 | 2.0 | 0.00 | 0.00 | 0.00 | 48 | 1020.9 |
| 20260507154505 | 53 | 70 | 0.0 | 1.0 | 0.00 | 0.00 | 0.00 | 49 | 1020.9 |
| 20260507154004 | 53 | 301 | 0.0 | 1.0 | 0.00 | 0.00 | 0.00 | 47 | 1021.0 |
| 20260507153504 | 53 | 308 | 0.0 | 1.0 | 0.00 | 0.00 | 0.00 | 49 | 1021.0 |
| 20260507153114 | 53 | 285 | 0.0 | 0.0 | 0.00 | 0.00 | 0.00 | 42 | 1021.0 |
| 20260507152559 | 53 | 285 | 0.0 | 2.0 | 0.00 | 0.00 | 0.00 | 45 | 1020.9 |
| 20260507152058 | 52 | 9 | 0.0 | 2.0 | 0.00 | 0.00 | 0.00 | 45 | 1020.9 |
| 20260507151540 | 53 | 248 | 0.0 | 1.0 | 0.00 | 0.00 | 0.00 | 42 | 1020.9 |
| 20260507151037 | 52 | 79 | 0.0 | 1.0 | 0.00 | 0.00 | 0.00 | 46 | 1020.9 |
| 20260507150537 | 52 | 233 | 0.0 | 1.0 | 0.00 | 0.00 | 0.00 | 43 | 1020.9 |
| 20260507150041 | 53 | 235 | 0.0 | 0.0 | 0.00 | 0.00 | 0.00 | 39 | 1020.9 |
| 20260507145533 | 53 | 148 | 0.0 | 0.0 | 0.00 | 0.00 | 0.00 | 36 | 1020.9 |
| 20260507145030 | 52 | 146 | 0.0 | 0.0 | 0.00 | 0.00 | 0.00 | 37 | 1020.8 |
| 20260507144512 | 52 | 235 | 0.0 | 1.0 | 0.00 | 0.00 | 0.00 | 41 | 1020.8 |
| 20260507144010 | 52 | 235 | 0.0 | 1.0 | 0.00 | 0.00 | 0.00 | 42 | 1020.8 |
| 20260507143510 | 52 | 232 | 0.0 | 1.0 | 0.00 | 0.00 | 0.00 | 41 | 1020.8 |
| 20260507143007 | 52 | 233 | 0.0 | 1.0 | 0.00 | 0.00 | 0.00 | 40 | 1020.7 |
| 20260507142506 | 52 | 39 | 0.0 | 0.0 | 0.00 | 0.00 | 0.00 | 39 | 1020.7 |
| 20260507142006 | 53 | 39 | 0.0 | 0.0 | 0.00 | 0.00 | 0.00 | 32 | 1020.7 |
| 20260507141605 | 53 | 39 | 0.0 | 0.0 | 0.00 | 0.00 | 0.00 | 30 | 1020.7 |
| 20260507141044 | 53 | 75 | 0.0 | 0.0 | 0.00 | 0.00 | 0.00 | 30 | 1020.7 |
| 20260507140543 | 54 | 113 | 0.0 | 0.0 | 0.00 | 0.00 | 0.00 | 20 | 1020.6 |
| 20260507140045 | 53 | 113 | 0.0 | 0.0 | 0.00 | 0.00 | 0.00 | 23 | 1020.6 |
| 20260507135541 | 53 | 113 | 0.0 | 0.0 | 0.00 | 0.00 | 0.00 | 22 | 1020.6 |
| 20260507135043 | 0 | 0.0 | 0.0 | 0.00 | 0.00 | 0.00 | 1020.6 | ||
| 20260507134539 | 0 | 0.0 | 0.0 | 0.00 | 0.00 | 0.00 | 1020.6 | ||
| 20260507134021 | 0 | 0.0 | 0.0 | 0.00 | 0.00 | 0.00 | 1020.6 | ||
| 20260507133523 | 0 | 0.0 | 0.0 | 0.00 | 0.00 | 0.00 | 1020.6 | ||
| 20260507133021 | 0 | 0.0 | 0.0 | 0.00 | 0.00 | 0.00 | 1020.7 | ||
| 20260507132523 | 0 | 0.0 | 0.0 | 0.00 | 0.00 | 0.00 | 1020.6 | ||
| 20260507132020 | 0 | 0.0 | 0.0 | 0.00 | 0.00 | 0.00 | 1020.6 | ||
| 20260507131526 | 0 | 0.0 | 0.0 | 0.00 | 0.00 | 0.00 | 1020.6 | ||
| 20260507131003 | 0 | 0.0 | 0.0 | 0.00 | 0.00 | 0.00 | 1020.7 | ||
| 20260507130502 | 0 | 0.0 | 0.0 | 0.00 | 0.00 | 0.00 | 1020.6 | ||
| 20260507130003 | 0 | 0.0 | 0.0 | 0.00 | 0.00 | 0.00 | 1020.6 | ||
| 20260507125503 | 0 | 0.0 | 0.0 | 0.00 | 0.00 | 0.00 | 1020.6 | ||
| 20260507125002 | 0 | 0.0 | 0.0 | 0.00 | 0.00 | 0.00 | 1020.7 | ||
| 20260507124501 | 0 | 0.0 | 0.0 | 0.00 | 0.00 | 0.00 | 1020.6 | ||
| 20260507124042 | 0 | 0.0 | 0.0 | 0.00 | 0.00 | 0.00 | 1020.6 | ||
| 20260507123541 | 0 | 0.0 | 0.0 | 0.00 | 0.00 | 0.00 | 1020.7 | ||
| 20260507123046 | 0 | 0.0 | 0.0 | 0.00 | 0.00 | 0.00 | 1020.6 | ||
| 20260507122538 | 0 | 0.0 | 0.0 | 0.00 | 0.00 | 0.00 | 1020.7 | ||
| 20260507122036 | 0 | 0.0 | 0.0 | 0.00 | 0.00 | 0.00 | 1020.7 | ||
| 20260507121539 | 0 | 0.0 | 0.0 | 0.00 | 0.00 | 0.00 | 1020.8 | ||
| 20260507121017 | 0 | 0.0 | 0.0 | 0.00 | 0.00 | 0.00 | 1020.8 | ||
| 20260507120514 | 0 | 0.0 | 0.0 | 0.00 | 0.00 | 0.00 | 1020.8 | ||
| 20260507120013 | 0 | 0.0 | 0.0 | 0.00 | 0.00 | 0.00 | 1020.9 | ||
| 20260507115512 | 0 | 0.0 | 0.0 | 0.00 | 0.00 | 0.00 | 1020.9 | ||
| 20260507115011 | 0 | 0.0 | 0.0 | 0.00 | 0.00 | 0.00 | 1021.0 | ||
| 20260507114509 | 0 | 0.0 | 0.0 | 0.00 | 0.00 | 0.00 | 1021.0 | ||
| 20260507114051 | 0 | 0.0 | 0.0 | 0.00 | 0.00 | 0.00 | 1021.0 | ||
| 20260507113556 | 0 | 0.0 | 0.0 | 0.00 | 0.00 | 0.00 | 1021.0 | ||
| 20260507113048 | 0 | 0.0 | 0.0 | 0.00 | 0.00 | 0.00 | 1021.0 | ||
| 20260507112549 | 0 | 0.0 | 0.0 | 0.00 | 0.00 | 0.00 | 1021.0 | ||
| 20260507112045 | 0 | 0.0 | 0.0 | 0.00 | 0.00 | 0.00 | 1021.1 | ||
| 20260507111544 | 0 | 0.0 | 0.0 | 0.00 | 0.00 | 0.00 | 1021.0 | ||
| 20260507111024 | 0 | 0.0 | 0.0 | 0.00 | 0.00 | 0.00 | 1021.1 | ||
| 20260507110522 | 0 | 0.0 | 0.0 | 0.00 | 0.00 | 0.00 | 1021.1 | ||
| 20260507110025 | 0 | 0.0 | 0.0 | 0.00 | 0.00 | 0.00 | 1021.1 | ||
| 20260507105521 | 0 | 0.0 | 0.0 | 0.00 | 0.00 | 0.00 | 1021.2 | ||
| 20260507105018 | 0 | 0.0 | 0.0 | 0.00 | 0.00 | 0.00 | 1021.1 | ||
| 20260507104517 | 0 | 0.0 | 0.0 | 0.00 | 0.00 | 0.00 | 1021.2 | ||
| 20260507104059 | 0 | 0.0 | 0.0 | 0.00 | 0.00 | 0.00 | 1021.3 | ||
| 20260507103556 | 0 | 0.0 | 0.0 | 0.00 | 0.00 | 0.00 | 1021.3 | ||
| 20260507103102 | 0 | 0.0 | 0.0 | 0.00 | 0.00 | 0.00 | 1021.3 | ||
| 20260507102555 | 0 | 0.0 | 0.0 | 0.00 | 0.00 | 0.00 | 1021.3 | ||
| 20260507102054 | 0 | 0.0 | 0.0 | 0.00 | 0.00 | 0.00 | 1021.4 | ||
| 20260507101559 | 0 | 0.0 | 0.0 | 0.00 | 0.00 | 0.00 | 1021.4 | ||
| 20260507101032 | 0 | 0.0 | 0.0 | 0.00 | 0.00 | 0.00 | 1021.4 | ||
| 20260507100532 | 0 | 0.0 | 0.0 | 0.00 | 0.00 | 0.00 | 1021.4 | ||
| 20260507100044 | 0 | 0.0 | 0.0 | 0.00 | 0.00 | 0.00 | 1021.3 | ||
| 20260507095529 | 0 | 0.0 | 0.0 | 0.00 | 0.00 | 0.00 | 1021.3 | ||
| 20260507095028 | 0 | 0.0 | 0.0 | 0.00 | 0.00 | 0.00 | 1021.4 | ||
| 20260507094526 | 0 | 0.0 | 0.0 | 0.00 | 0.00 | 0.00 | 1021.4 | ||
| 20260507094010 | 0 | 0.0 | 0.0 | 0.00 | 0.00 | 0.00 | 1021.4 | ||
| 20260507093507 | 0 | 0.0 | 0.0 | 0.00 | 0.00 | 0.00 | 1021.4 | ||
| 20260507093004 | 0 | 0.0 | 0.0 | 0.00 | 0.00 | 0.00 | 1021.5 | ||
| 20260507092504 | 0 | 0.0 | 0.0 | 0.00 | 0.00 | 0.00 | 1021.4 | ||
| 20260507092004 | 0 | 0.0 | 0.0 | 0.00 | 0.00 | 0.00 | 1021.4 | ||
| 20260507091502 | 0 | 0.0 | 0.0 | 0.00 | 0.00 | 0.00 | 1021.4 | ||
| 20260507091044 | 0 | 0.0 | 0.0 | 0.00 | 0.00 | 0.00 | 1021.4 | ||
| 20260507090543 | 0 | 0.0 | 0.0 | 0.00 | 0.00 | 0.00 | 1021.5 | ||
| 20260507090047 | 0 | 0.0 | 0.0 | 0.00 | 0.00 | 0.00 | 1021.5 | ||
| 20260507085542 | 0 | 0.0 | 0.0 | 0.00 | 0.00 | 0.00 | 1021.6 | ||
| 20260507085041 | 0 | 0.0 | 0.0 | 0.00 | 0.00 | 0.00 | 1021.6 | ||
| 20260507084545 | 0 | 0.0 | 0.0 | 0.00 | 0.00 | 0.00 | 1021.6 | ||
| 20260507084020 | 0 | 0.0 | 0.0 | 0.00 | 0.00 | 0.00 | 1021.6 | ||
| 20260507083519 | 0 | 0.0 | 0.0 | 0.00 | 0.00 | 0.00 | 1021.6 | ||
| 20260507083017 | 0 | 0.0 | 0.0 | 0.00 | 0.00 | 0.00 | 1021.6 | ||
| 20260507082516 | 0 | 0.0 | 0.0 | 0.00 | 0.00 | 0.00 | 1021.6 | ||
| 20260507082014 | 0 | 0.0 | 0.0 | 0.00 | 0.00 | 0.00 | 1021.7 | ||
| 20260507081517 | 0 | 0.0 | 0.0 | 0.00 | 0.00 | 0.00 | 1021.6 | ||
| 20260507081112 | 0 | 0.0 | 0.0 | 0.00 | 0.00 | 0.00 | 1021.6 | ||
| 20260507080554 | 0 | 0.0 | 0.0 | 0.00 | 0.00 | 0.00 | 1021.6 | ||
| 20260507080051 | 0 | 0.0 | 0.0 | 0.00 | 0.00 | 0.00 | 1021.7 | ||
| 20260507075550 | 0 | 0.0 | 0.0 | 0.00 | 0.00 | 0.00 | 1021.8 | ||
| 20260507075049 | 0 | 0.0 | 0.0 | 0.00 | 0.00 | 0.00 | 1021.7 | ||
| 20260507074549 | 0 | 0.0 | 0.0 | 0.00 | 0.00 | 0.00 | 1021.8 | ||
| 20260507074047 | 0 | 0.0 | 0.0 | 0.00 | 0.00 | 0.00 | 1021.7 |